sat.trackr.live / text

‹ back to catalog

NAVSTAR 53 (USA 175)

NORAD 28129 · 2003-058A

PAYLOAD ACTIVE UNKNOWN

§ Identity

Operator
Country
US
Launch date
2003-12-21
Launch site
AFETR
Launch vehicle
Mass (kg)
RCS (m²)
6.31

External: N2YO · Heavens-Above · Gunter

§ Orbital elements

Epoch: 2026-05-23T03:17:21.012864Z

Period
747.36 min
Inclination
55.0124°
Eccentricity
0.0002290
Mean motion
1.92678417 rev/d
Perigee alt
20,895.7 km
Apogee alt
20,908.2 km
Semi-major
27,280.1 km
B*
0.0000e+0
RAAN
24.1941°
Arg perigee
335.6997°
Mean anomaly
24.3271°
Rev number
16,398

§ Raw data

NAVSTAR 53 (USA 175)1 28129U 03058A   26143.13704876 -.00000108  00000+0  00000+0 0  99982 28129  55.0124  24.1941 0002290 335.6997  24.3271  1.92678417163988

JSON: /api/v1/satellites/28129 · /tle

For live sub-satellite position, see the globe view (requires WebGL).

§ Visibility from observer

Set your observer location to see the next 7 days of passes ≥ 10°. The values pass through the URL so the page stays shareable.

No JS? Fill the form by hand. The geolocation button needs JavaScript.